STARLINK-5753, 55581

Orbit data source: Space-Track

STARLINK-5753, 55581 is a payload satellite owned by SpaceX/Seattle (US) in LEO that was launched on Sun, 12 Feb 2023 UTC via an FALCON 9 launch vehicle from the Air Force Eastern Test Range (AFETR). Payload-class satellites include a variety of spacecraft equipped with specific instruments for various scientific and technological missions. These include communications satellites like Starlink; space stations such as the ISS; scientific satellites like the Hubble; Earth observation satellites from companies like Planet Labs, Umbra, and HawkEye 360; GPS; miniature CubeSats for education and research; and military/defense satellites.

Loading next visibility...
Identifier
55581, 2023-020N
Orbit
LEO
Country
Flag of USUS
Related business
Manufacturer
SpaceX/Seattle
Mission
Operational Commercial Communications
Bus & Motor
STARLINK, Unknown motor
Mass
305 kg wet, ~290 kg dry
Launch date (UTC)
2023-02-12 (3 years ago)
Launch vehicle
FALCON 9
Launch site
Air Force Eastern Test Range (AFETR)
Object type
Payload
Rocket body
Debris
Shape & HBR
Box + 1 Pan, 10.1 m
Radar Cross Section
13.562 m², Large (>1 m²)

Expand to show TLE details & history
Last TLE update: 9 hours ago

TLE from 9 hours ago
0 STARLINK-5753
1 55581U 23020N   26061.94599272  .00001209  00000-0  10459-3 0  9997
2 55581  43.0039  41.3884 0001253 267.9187  92.1512 15.02534410167902
Epoch: 2026-03-02T22:42Z
TLE epoch observation values (Epoch: 2026-03-02T22:42:13.771Z)
Latitude
-0.00003°
Longitude
-99.90113°
Altitude
558.895 km
Speed
7.584 km/s
True Right ascension
02h 45m 33s
True Declination
0° 00' 00"
Sunlit
Object was in daylight at epoch
Visualization orbit readout
Latitude
Unknown
Longitude
Unknown
Altitude
Unknown
Speed
Unknown
Apparent Right ascension
Unknown
Apparent Declination
Unknown
Sunlit
N/A
Visualization observer readout
Local Sidereal Time
11:20:41
Azimuth
Unknown
Elevation
Unknown
Doppler factor
Unknown
Orbital elements
Apogee altitude
561.877 km
Perigee altitude
560.138 km
Semi-major axis
6,939.145 km
Eccentricity
0.00013
Inclination
43.0039°
RAAN
41.3884°
Arg. of periapsis
267.9187°
True anomaly
92.16555°
Mean anomaly
92.1512°
Eccentric anomaly
92.15837°
Mean motion
3.75478 °/min
Orbital period
95.88 mins
BSTAR
0.00010459
Loading maneuver chart data...
Computing Atmospheric mass density...
Loading historical data...
Loading historical data...
Loading historical data...
Loading historical data...
Loading historical data...
Loading historical data...
Loading historical data...

Documentation

Showing up to 5 results
|